カタログに戻る

COSMOS 2251 DEB

運用中LEO
NORAD 34070·DEBRIS·🇷🇺 Russia

打ち上げ Jun 16, 1993 から Plesetsk Cosmodrome

Loading…

次のパス (今後24時間)

TLE

最新Source: Space-Track

元期: Sep 14, 2026, 21:01 UTC

1 34070U 93036KH  26257.87573633  .00010737  00000-0  12723-2 0  9994
2 34070  73.9970 290.0148 0020752 327.7122 209.1135 14.84469262926997

AllMySatでCOSMOS 2251 DEBをリアルタイム追跡

Download on the App Store